World > North America > United States > New York > Bouckville  

Bouckville, NY Hourly Weather Updates

Feedback E-mail the Weather

Quick Clicks

Bouckville, NY Weather Maps

°F °C°F °C
Bouckville Weather Map
UTC Time: 6/21/2024, 04:31
Your Time:

Bouckville, NY Regional Weather

Expires:202406210500;;386228
ASUS41 KBGM 210410
RWRBGM

REGIONAL WEATHER ROUNDUP
NATIONAL WEATHER SERVICE BINGHAMTON NY
1200 AM EDT FRI JUN 21 2024

Note: "fair" indicates few or no clouds below 12,000 feet with no
significant weather and/or obstructions to visibility.

* = Station(s) that does not report precipitation, such as rain, 
snow, etc, also no thunder or fog.


NYZ009-015>018-022>025-036-037-044>046-055>057-062-210500
...Central New York...
  
CITY           SKY/WX    TMP DP  RH WIND       PRES   REMARKS
Binghamton     PTCLDY    73  70  90 NE3       30.29S                  
Cortland       PTCLDY    72  68  88 CALM      30.28F                  
Dansville      MOCLDY    76  71  85 SE3       30.26S                  
Elmira         PTCLDY    74  70  87 CALM      30.26R                  
Endicott         N/A     73  73 100 CALM      30.26                   
Ithaca         PTCLDY    71  69  93 CALM      30.28S                  
Hamilton       CLEAR     68  64  88 CALM      30.29R                  
Monticello     NOT AVBL                                               
Norwich        PTCLDY    66  66 100 CALM      30.31S FOG              
Oneonta        CLEAR     66  66 100 CALM      30.31S                  
Penn Yan       PTCLDY    70  66  87 S3        30.27S                  
Rome           CLEAR     70  66  87 SE3       30.25S                  
Seneca Falls   CLEAR     72  64  78 CALM      30.25S                  
Skaneateles    PTCLDY    70  68  94 CALM      30.26F                  
Syracuse       PTCLDY    75  65  70 CALM      30.24S                  
$$
 

SKY/WX - Weather  TMP - Temperature  DP - Dew Point  RH - Humidity
WIND - Wind Direction/Speed PRES - Barometric Pressure VSB - Visibility
WCI - Wind Chill Index E13G22 Wind - East Wind 13 mph/Gusts of 22 mph

Trending Headlines

Trending Entertainment Headlines

Bouckville Radar Loop

Use the map search tool if you want to place a location marker on the radar map...

Bouckville Quick Facts

National Two Day Weather Forecast


E-mail the Bouckville Weather Forecast

Voice your opinion or tell us about page issues...